This is the latest recevied weather packets stored in our database for station/object K5YNC. If no packets are shown the sender has not sent any weather packets the latest 10 day(s).
| Time | Temp. | Humidity | Pressure | Rain* | Wind** | Luminosity | Snow |
|---|---|---|---|---|---|---|---|
| 1777912472 | 22.78° C | 63% | 1012.5 hPa | 0 mm | - | 611 W/m² | - |
| 1777912169 | 22.78° C | 63% | 1012.5 hPa | 0 mm | - | 591 W/m² | - |
| 1777911865 | 22.78° C | 62% | 1012.6 hPa | 0 mm | - | 553 W/m² | - |
| 1777911562 | 22.78° C | 63% | 1012.7 hPa | 0 mm | - | 589 W/m² | - |
| 1777911258 | 22.78° C | 63% | 1012.6 hPa | 0 mm | - | 651 W/m² | - |
| 1777910955 | 22.78° C | 63% | 1012.8 hPa | 0 mm | - | 579 W/m² | - |
| 1777910653 | 22.22° C | 64% | 1012.9 hPa | 0 mm | - | 613 W/m² | - |
| 1777910349 | 21.67° C | 65% | 1012.7 hPa | 0 mm | - | 495 W/m² | - |
| 1777910046 | 21.67° C | 64% | 1012.8 hPa | 0 mm | - | 501 W/m² | - |
| 1777909744 | 22.22° C | 64% | 1012.7 hPa | 0 mm | - | 525 W/m² | - |
| 1777909440 | 21.67° C | 64% | 1012.5 hPa | 0 mm | - | 455 W/m² | - |
| 1777909138 | 21.67° C | 66% | 1012.6 hPa | 0 mm | - | 442 W/m² | - |
| 1777908836 | 21.11° C | 65% | 1012.7 hPa | 0 mm | - | 461 W/m² | - |
| 1777908532 | 21.67° C | 65% | 1012.7 hPa | 0 mm | - | 419 W/m² | - |
| 1777908229 | 21.11° C | 65% | 1012.7 hPa | 0 mm | - | 465 W/m² | - |
| 1777907926 | 21.11° C | 66% | 1012.6 hPa | 0 mm | - | 462 W/m² | - |
| 1777907622 | 21.11° C | 66% | 1012.8 hPa | 0 mm | - | 431 W/m² | - |
| 1777907317 | 21.11° C | 66% | 1012.8 hPa | 0 mm | - | 479 W/m² | - |
| 1777907014 | 21.11° C | 65% | 1012.9 hPa | 0 mm | - | 449 W/m² | - |
| 1777906712 | 20.56° C | 66% | 1013 hPa | 0 mm | - | 471 W/m² | - |
| 1777906407 | 20.56° C | 67% | 1012.9 hPa | 0 mm | - | 432 W/m² | - |
| 1777906104 | 20° C | 68% | 1013.2 hPa | 0 mm | - | 419 W/m² | - |
| 1777905801 | 20° C | 67% | 1013.1 hPa | 0 mm | - | 392 W/m² | - |
| 1777905499 | 20° C | 68% | 1013.1 hPa | 0 mm | - | 386 W/m² | - |
| 1777905195 | 20° C | 68% | 1013 hPa | 0 mm | - | 378 W/m² | - |
* Rain latest hour (hover to see other rain measurements)
** Current wind speed in m/s (hover to see current wind gust speed)